Wind_Speed
71 70 69 69 69 69 68 67 64 63 63 63 62 62 61 60 59 58 56 55 54 53 53 54 54 55 56 56 56 55 55 55 55 54 54 53 54 54 54 55 57 59 59 57 55 51 47 44 40 36 33 31 30 31 33 35 36 36 37 37 36 36 35 35 35 36 36 37 38 39 39 38 39 39 39 39 39 40 41 41 41 41 41 41 41 42
71 71 72 73 72 70 69 67 66 65 66 66 65 64 63 62 61 60 58 57 55 54 55 54 54 57 58 57 56 55 55 57 56 54 54 53 54 54 54 56 58 59 60 58 56 52 49 45 40 35 32 30 30 31 33 35 36 36 37 37 36 36 36 36 36 37 37 38 39 40 41 41 41 41 41 41 41 41 41 42 42 42 42 43 43 43
73 73 74 74 72 70 69 69 68 68 69 69 69 67 66 65 64 63 61 59 57 57 57 56 56 59 60 57 56 54 55 58 57 54 53 54 54 55 55 57 59 60 60 58 56 54 50 46 40 35 31 29 29 31 33 36 37 36 36 36 36 36 37 37 37 37 38 38 39 41 42 42 43 43 43 43 43 42 42 43 43 43 44 44 45 45
76 76 75 73 72 71 70 70 69 70 71 71 71 70 69 68 66 65 63 62 61 60 60 58 56 59 60 57 55 55 56 58 56 54 53 54 55 56 56 58 60 61 61 59 57 55 51 47 42 35 30 28 28 31 33 35 36 36 35 36 36 37 37 37 37 37 37 38 40 42 43 44 44 44 44 44 44 43 43 43 43 44 44 45 45 46
77 77 75 74 73 73 72 71 71 71 72 72 72 72 71 69 67 66 65 65 63 61 61 59 56 57 59 56 55 55 56 57 55 53 53 54 55 56 57 59 61 61 62 60 58 55 53 49 43 37 30 27 28 30 32 34 34 35 35 36 37 38 38 38 37 37 38 39 40 42 43 43 43 43 43 44 44 44 43 43 43 44 45 45 46 46
77 76 76 75 75 74 74 73 73 73 73 73 73 73 72 70 69 67 67 66 64 61 60 59 55 54 56 56 55 57 58 56 54 52 53 56 57 57 59 61 62 62 62 59 57 56 54 51 45 39 32 28 28 30 30 31 32 34 35 37 37 38 38 38 38 38 39 40 41 41 42 42 41 42 42 43 43 43 43 43 43 43 45 45 46 47
76 75 75 76 76 76 75 75 74 75 75 74 74 73 73 71 70 68 67 65 63 61 59 58 54 51 54 56 56 58 58 56 53 52 54 57 58 59 61 63 63 62 60 58 58 57 56 53 48 41 34 30 29 29 29 29 30 32 34 37 38 38 38 38 38 39 40 41 41 41 41 41 41 41 42 43 43 44 44 43 43 43 44 45 46 47
77 76 76 77 77 77 77 76 76 76 75 75 74 74 73 71 70 68 66 65 62 60 59 58 56 52 52 55 58 58 56 56 55 54 55 57 59 61 63 64 63 61 60 59 59 58 58 57 53 46 37 31 29 29 28 28 30 31 33 35 37 38 38 38 39 40 41 42 42 43 43 42 42 42 43 43 43 44 44 44 44 44 45 45 46 47
78 78 77 77 77 77 77 76 76 75 75 74 73 73 72 70 69 67 65 64 62 60 59 59 59 55 49 52 59 58 55 55 55 55 55 58 61 62 63 63 62 61 61 61 60 60 60 59 58 52 43 33 30 30 30 29 30 30 32 34 36 38 39 39 40 41 42 43 44 45 44 44 44 44 44 44 44 44 44 45 45 45 45 46 47 48
79 78 77 76 75 75 75 75 74 74 73 72 72 72 71 70 68 67 66 65 65 63 60 60 62 58 49 48 54 56 55 55 56 57 58 60 61 62 62 62 62 62 62 62 62 61 61 60 60 58 51 42 36 33 31 31 31 32 32 34 36 38 39 41 42 42 43 44 46 47 46 46 46 45 45 45 45 44 45 45 45 45 46 47 48 49
80 79 78 76 75 74 74 74 74 73 72 71 71 71 72 71 70 70 69 69 69 64 61 62 63 61 52 46 48 53 54 56 58 59 58 59 60 60 61 61 62 63 63 63 62 61 62 62 61 60 57 52 47 41 36 34 35 35 35 36 37 38 40 41 43 44 45 46 47 49 49 48 47 47 46 47 47 46 46 47 47 47 48 49 50 51
81 80 78 77 76 76 76 76 75 74 73 72 72 73 74 73 73 73 71 72 70 64 62 64 64 62 55 45 46 51 55 56 58 59 57 57 58 58 59 61 62 63 63 63 62 62 63 64 63 61 58 57 55 51 44 39 39 40 40 40 41 41 41 42 43 45 46 47 49 51 52 52 50 49 49 48 48 48 48 48 49 50 51 51 52 53
80 80 79 78 78 77 77 77 76 75 74 74 74 75 76 76 75 74 73 72 70 66 65 66 66 63 54 47 48 51 54 57 58 58 57 57 57 57 58 61 62 63 64 64 64 64 65 65 64 62 60 60 59 57 51 46 44 45 45 45 45 45 44 44 44 46 47 49 51 52 54 54 53 53 52 52 52 51 51 51 52 53 53 54 54 55
81 81 81 80 79 78 77 77 77 77 77 78 78 78 78 77 76 74 73 73 71 69 69 68 68 62 53 50 52 52 55 58 57 58 59 59 59 58 58 61 62 63 65 66 65 66 66 66 65 63 62 62 61 59 56 51 50 50 50 49 49 48 47 47 46 47 48 50 52 53 54 55 55 55 56 56 55 55 55 55 55 56 57 57 57 57
80 80 79 79 79 79 79 79 80 80 81 80 80 80 78 77 76 75 75 75 73 73 72 70 68 60 53 53 55 55 57 58 57 59 60 61 61 60 60 62 63 63 65 66 66 66 67 67 66 65 64 62 61 61 58 55 55 55 55 54 52 51 50 49 49 50 50 51 53 54 55 56 57 58 59 59 59 59 59 59 59 59 60 60 60 60
80 78 78 79 79 80 81 81 82 83 82 82 82 80 78 78 78 78 78 76 75 75 72 69 66 60 56 56 57 57 58 58 58 59 59 60 61 61 62 63 64 65 66 67 66 67 68 68 68 67 65 63 61 61 60 59 58 58 58 57 55 54 53 52 53 53 53 54 54 56 57 58 59 61 62 62 62 62 62 62 63 63 63 63 63 64
82 82 82 82 82 83 84 85 85 85 85 85 84 81 80 80 81 81 79 77 76 75 72 69 66 62 60 59 57 57 58 59 59 59 60 61 62 62 63 64 65 66 67 67 67 68 69 69 69 69 67 64 62 61 61 61 61 61 60 59 57 56 55 55 56 57 56 56 57 57 58 59 61 62 64 65 65 65 65 65 65 66 66 66 66 67
86 86 86 86 86 86 87 87 87 87 86 85 83 81 82 83 83 82 81 79 78 76 73 70 68 65 63 61 58 57 58 60 61 61 61 62 63 64 65 66 67 67 68 67 67 69 70 70 71 71 69 66 64 63 63 63 63 63 62 61 60 58 57 58 59 60 59 59 59 59 61 62 63 64 66 67 67 67 68 68 68 69 69 69 69 70
89 89 89 88 88 88 88 88 87 86 85 84 83 83 84 84 83 84 84 82 80 79 76 72 70 67 64 60 59 59 60 61 62 62 63 64 66 67 68 68 69 69 70 69 68 70 71 71 71 71 71 69 68 67 66 66 65 65 64 63 62 61 60 61 62 62 62 62 61 62 63 65 66 67 68 68 69 69 69 70 71 71 72 72 73 73
93 93 92 91 91 91 91 89 87 86 86 86 86 87 87 86 86 85 86 84 83 82 79 75 71 66 62 61 61 62 62 62 63 64 65 66 67 68 69 70 70 71 71 71 71 71 72 72 71 71 72 72 71 70 69 69 67 66 65 65 64 64 64 64 64 64 64 64 64 65 66 68 69 70 70 70 70 71 71 72 72 73 74 75 76 76
98 97 96 95 94 93 91 89 88 88 90 91 91 90 89 88 88 87 87 86 84 83 80 76 71 63 61 63 63 63 63 63 65 67 67 68 69 69 70 71 71 71 71 72 73 74 74 74 72 72 73 73 72 72 72 71 69 67 67 67 67 66 66 66 66 66 67 67 67 68 69 70 71 72 72 72 72 72 73 74 75 76 76 77 79 79
99 99 98 98 97 95 93 92 92 93 94 93 93 91 89 88 88 87 86 85 83 82 80 78 72 63 62 64 65 65 66 66 67 69 69 70 72 72 71 71 72 72 72 73 74 76 76 76 75 74 73 73 73 73 73 72 70 69 69 69 68 68 68 68 69 69 69 69 70 71 71 72 73 74 74 74 74 74 75 76 77 78 79 80 81 81
101 101 100 99 97 96 96 96 96 95 95 94 92 89 87 87 86 86 85 84 84 83 80 80 74 64 62 66 67 66 68 68 69 71 73 73 74 75 74 73 73 74 75 75 76 77 77 77 76 74 74 73 73 74 75 75 73 72 71 70 69 70 71 71 71 72 71 71 72 72 73 74 75 75 75 75 76 76 77 78 79 80 81 82 83 83
103 102 100 99 97 96 96 96 95 95 94 92 89 87 87 87 86 88 88 87 86 84 81 82 77 66 63 67 68 68 69 70 71 73 75 74 74 75 74 74 74 75 76 76 77 77 78 77 76 75 74 74 74 75 76 77 77 76 74 73 71 72 73 74 74 74 73 72 73 74 75 76 76 76 76 77 78 79 80 81 81 82 83 83 84 85
105 104 102 101 99 98 97 95 93 91 91 90 89 89 89 90 91 92 91 91 89 84 82 83 76 67 66 68 69 70 71 73 74 75 76 76 76 76 76 76 77 77 77 78 78 79 79 78 77 76 75 75 76 77 77 78 78 78 78 77 75 75 75 75 75 75 74 74 74 75 76 77 78 78 78 79 80 81 83 83 83 84 84 84 85 86
108 107 104 102 100 97 94 91 89 90 92 94 93 93 93 93 94 94 93 93 89 82 82 82 75 69 70 71 71 72 74 75 76 77 78 79 79 79 79 80 80 81 83 83 83 82 81 79 78 76 76 76 77 78 78 79 80 80 80 80 78 77 76 76 76 76 76 75 75 76 77 78 79 80 81 82 83 84 85 85 85 85 85 85 86 88
109 107 104 102 99 95 91 90 91 94 97 97 94 93 94 95 95 95 95 92 86 83 84 82 76 74 73 72 73 74 75 78 78 79 81 82 82 82 82 83 84 86 87 87 85 84 82 80 78 77 77 78 80 81 80 80 81 81 81 81 80 78 77 76 76 77 77 77 78 79 80 81 82 83 84 85 85 85 86 86 86 86 86 87 89 91
110 108 104 102 99 95 93 93 96 98 99 97 95 94 95 96 96 96 94 89 86 88 86 80 79 78 73 72 76 76 77 80 80 81 83 84 85 85 85 86 88 89 89 87 85 84 82 81 81 80 80 81 81 82 82 82 81 81 82 82 81 80 79 79 79 79 80 81 81 83 84 84 85 86 87 87 86 86 86 87 88 88 90 91 93 94
110 108 104 102 100 97 96 97 98 99 99 99 97 97 97 97 97 95 92 88 88 92 88 81 82 82 76 74 78 78 80 83 84 86 88 87 88 88 89 89 90 90 88 87 86 85 84 84 84 84 83 82 82 82 82 82 82 81 81 82 82 82 82 83 84 84 85 85 86 87 87 87 88 88 88 88 88 88 89 89 91 92 93 95 96 97
111 108 106 104 103 101 100 100 100 101 101 101 100 100 99 99 97 94 91 89 91 94 90 85 85 84 79 78 80 81 84 87 89 91 92 91 91 91 91 90 89 88 87 87 87 87 86 87 87 86 85 84 83 82 82 82 81 82 82 83 84 85 86 87 88 88 88 88 89 89 89 89 89 89 89 89 90 91 92 93 95 96 97 98 99 100
111 109 107 107 107 105 103 102 102 103 103 104 103 103 101 98 96 93 92 92 95 96 93 91 90 86 82 82 84 85 88 91 92 93 94 93 92 91 91 90 89 89 89 89 89 88 88 88 88 87 86 84 84 83 82 82 83 84 85 86 87 88 88 89 90 90 90 91 91 91 90 90 90 90 91 92 93 94 96 97 97 98 99 100 101 102
112 111 109 109 110 108 104 103 105 106 107 108 107 103 98 96 94 94 95 97 98 98 97 97 94 88 85 87 89 89 92 93 93 94 95 95 94 93 93 92 91 91 91 90 90 89 89 88 88 87 86 85 85 84 85 85 86 87 88 88 89 90 90 90 91 91 92 92 92 92 92 93 93 93 94 95 96 97 97 98 98 100 101 102 103 104
112 112 111 111 111 109 105 105 107 110 112 112 105 97 95 95 96 98 100 99 99 99 100 99 95 89 89 91 91 91 94 95 96 96 96 96 96 95 94 92 92 91 90 90 90 89 89 89 88 88 88 87 88 88 88 88 89 90 90 91 91 92 92 93 94 94 95 95 96 96 96 96 96 97 97 98 98 99 99 99 100 101 103 104 105 105
111 111 111 112 112 111 108 108 111 115 116 110 100 95 96 99 101 102 102 100 100 101 101 100 96 92 92 93 92 94 97 99 99 98 96 96 95 95 94 93 93 92 92 92 91 91 91 91 91 91 90 90 91 91 91 92 92 93 93 94 95 96 97 97 98 98 98 98 99 99 99 99 99 99 100 100 100 101 101 102 103 104 105 106 105 103
112 112 112 113 113 113 111 112 116 118 114 106 100 99 100 102 103 103 103 101 101 102 102 101 97 94 94 95 96 98 99 99 99 98 96 96 95 95 95 95 95 95 95 95 95 94 94 94 94 94 94 93 93 93 94 94 95 96 97 98 99 99 99 99 99 99 99 99 100 101 101 101 101 102 102 103 103 104 105 106 107 107 107 105 102 99
112 112 112 113 114 114 114 115 117 115 110 105 103 101 101 101 103 104 104 103 102 103 104 102 98 96 97 99 100 100 101 100 99 99 98 97 96 96 96 96 97 97 97 97 97 97 97 97 96 96 97 97 97 97 98 99 100 100 101 101 100 100 100 99 99 100 100 101 102 103 103 104 104 105 106 106 107 108 108 109 108 106 104 101 97 94
114 113 113 114 115 115 114 114 115 114 110 106 102 98 98 100 103 105 106 105 103 105 105 103 100 99 100 101 102 102 103 102 101 101 100 99 99 99 99 99 99 100 100 100 100 100 100 100 101 101 101 102 102 103 103 103 103 103 103 103 102 102 102 103 103 104 104 105 106 106 107 107 108 108 108 109 109 108 108 106 104 101 99 95 93 91
116 116 116 117 117 117 117 117 117 117 113 105 99 97 99 102 104 107 109 108 105 104 105 104 103 103 104 105 105 105 106 106 105 104 103 103 103 103 103 103 103 104 104 105 105 105 105 105 105 106 106 106 106 106 106 106 106 106 106 107 107 108 108 108 108 109 109 109 109 109 109 110 109 109 108 108 107 105 103 101 98 96 94 92 91 91
116 117 118 119 120 120 121 121 122 120 115 107 102 103 104 105 107 111 114 111 106 104 106 107 107 108 108 109 109 110 111 110 109 109 109 108 108 108 108 108 108 109 109 109 109 109 109 108 108 108 108 108 108 109 109 109 110 110 111 112 112 112 112 111 111 110 109 109 109 109 109 109 108 107 106 104 102 100 98 96 94 94 93 92 92 92
119 119 119 120 121 121 122 123 123 121 116 111 108 109 110 110 113 117 117 112 106 105 109 111 112 112 112 112 113 114 114 114 113 113 113 113 112 112 112 112 112 111 111 111 111 111 111 111 112 112 112 112 112 112 113 113 114 114 114 113 113 112 111 110 109 109 108 107 107 107 106 106 104 103 101 99 97 95 94 94 94 94 94 94 94 94
124 123 123 123 123 123 123 124 124 122 117 113 112 113 114 116 118 119 117 113 110 111 114 115 115 115 115 115 116 116 116 116 115 115 115 115 114 114 113 113 113 113 113 113 113 114 115 116 116 116 116 115 115 114 114 114 113 113 112 111 110 109 108 107 107 106 105 104 103 102 100 99 98 97 96 95 94 94 94 94 95 95 96 96 96 96
127 127 128 127 126 126 126 127 127 125 120 117 116 117 119 120 120 119 117 116 116 116 117 118 118 118 118 118 117 117 117 117 117 117 117 117 116 116 116 117 117 117 117 117 117 117 118 118 118 117 116 115 114 112 111 110 110 109 109 108 107 105 104 103 102 101 99 98 97 96 95 95 94 94 94 94 95 95 95 96 97 98 98 99 99 100
128 129 130 129 129 129 130 131 131 128 123 121 121 122 124 123 123 121 121 120 120 119 119 120 121 121 121 121 120 120 120 120 120 120 120 120 119 119 119 119 119 119 118 117 117 117 116 116 115 114 113 111 109 108 106 105 104 104 103 102 101 100 98 97 96 96 95 95 95 95 95 95 96 96 97 97 98 98 98 99 99 100 101 102 102 103
127 128 128 128 129 130 131 131 131 128 126 124 125 125 125 125 124 124 123 122 122 121 121 122 123 123 123 123 122 121 121 121 121 120 120 119 118 118 117 116 116 115 114 112 111 110 109 108 106 105 104 103 101 101 100 98 97 97 97 96 96 95 95 95 95 96 96 97 97 97 98 98 99 100 100 100 100 100 100 101 101 102 103 104 104 105
125 125 125 126 127 128 129 129 128 127 126 125 125 124 124 124 123 122 122 121 121 120 121 121 122 122 122 121 120 119 119 118 118 117 116 115 114 113 112 110 109 107 106 104 102 101 99 98 98 97 97 97 96 96 96 95 95 95 95 96 96 96 97 97 98 98 99 99 100 100 101 101 101 102 102 103 103 103 103 103 104 104 105 105 106 106
121 122 122 123 124 125 125 125 124 123 122 122 121 121 121 120 120 119 119 118 118 117 117 117 117 117 116 116 115 114 113 112 111 110 109 108 107 106 105 103 101 100 99 97 97 96 96 95 96 96 97 97 98 97 98 98 98 98 98 98 99 99 99 100 100 100 101 101 102 102 102 102 103 103 104 104 104 105 105 106 106 107 107 108 108 109
116 116 117 118 119 120 120 119 118 118 117 117 116 116 115 114 113 113 112 111 111 110 109 109 109 108 107 107 107 106 106 105 104 104 102 101 101 100 99 98 97 97 97 97 97 97 97 98 98 98 99 100 100 100 100 101 101 100 100 100 100 100 101 101 102 102 103 103 103 103 104 104 104 105 105 106 107 107 108 108 109 109 110 110 111 111
109 110 110 111 111 112 112 111 110 108 108 107 107 106 106 106 105 105 105 104 104 104 103 103 103 102 102 102 102 102 101 101 101 101 100 99 99 98 98 98 99 99 100 100 100 100 100 100 100 100 101 101 102 102 102 103 103 103 102 101 101 102 102 102 103 104 105 105 105 106 106 106 107 107 108 109 109 109 109 110 110 110 111 112 113 114
107 108 108 107 107 107 106 104 103 102 102 102 102 102 102 102 102 102 102 102 102 102 102 102 102 101 101 100 100 100 100 100 101 101 101 101 101 101 101 101 101 102 102 103 103 103 103 103 102 102 102 102 103 103 103 104 105 105 104 104 104 104 104 105 105 105 106 107 107 108 108 108 109 109 109 110 110 110 110 111 112 113 115 116 118 119
109 109 109 108 107 106 105 104 104 104 103 103 103 103 103 102 102 102 102 102 102 102 102 102 102 102 101 101 101 101 101 102 102 103 103 103 104 104 104 104 104 104 104 105 105 105 105 105 105 104 104 104 104 104 105 105 106 107 107 107 107 106 106 106 106 106 107 107 107 108 108 108 109 110 111 112 113 114 115 116 117 119 122 123 124 125
112 112 111 111 110 108 107 107 106 105 104 104 104 104 103 103 103 103 103 103 103 104 104 104 103 103 103 103 103 103 104 104 105 105 105 105 105 106 106 107 107 107 107 107 106 106 107 107 106 106 106 106 106 106 106 107 107 107 108 108 108 108 107 107 107 107 107 108 109 110 111 112 114 116 117 119 121 122 123 124 124 125 126 127 128 127
Wind_Direction
239 240 241 242 243 244 245 247 249 250 250 250 250 251 252 254 255 258 260 262 262 261 259 259 262 265 268 270 273 274 275 276 278 281 283 286 289 292 294 297 300 301 301 302 302 302 303 306 308 308 306 302 300 301 302 303 305 307 309 309 310 310 310 310 310 310 310 310 310 310 310 310 309 309 308 308 308 309 309 308 308 308 308 308 308 308
238 239 241 242 244 245 247 248 249 249 249 250 250 251 252 254 257 259 261 261 260 258 257 259 264 267 269 270 272 273 275 276 277 279 281 285 287 290 293 296 298 299 300 300 300 301 302 303 306 307 304 301 300 301 302 303 306 308 308 308 310 310 310 310 310 310 311 311 312 312 312 312 312 312 311 311 310 310 309 308 308 308 307 307 307 307
238 239 240 242 243 245 246 247 248 249 250 250 251 252 254 256 258 260 260 258 257 256 258 260 264 267 268 269 271 273 275 276 277 279 282 285 287 290 293 296 297 297 298 298 298 299 299 301 304 305 303 300 299 300 302 304 306 307 306 307 308 309 309 310 310 310 311 312 312 312 312 313 313 314 313 312 311 311 310 309 308 308 307 307 307 307
238 239 240 241 243 244 245 246 248 249 250 251 252 253 255 256 258 258 257 256 256 257 259 261 263 266 268 269 271 273 273 274 277 280 283 286 288 291 293 295 296 296 297 297 297 297 297 299 302 304 303 299 296 298 301 303 304 305 305 306 306 307 308 309 309 309 310 311 312 311 312 313 314 313 313 312 312 312 311 311 310 309 308 307 307 307
238 240 241 242 244 245 246 247 248 249 250 251 253 254 255 256 256 256 255 255 256 258 260 261 261 263 267 269 271 271 271 273 277 280 283 286 288 290 292 293 295 295 296 296 295 295 296 297 300 302 302 296 295 297 300 301 303 303 304 304 304 306 307 307 307 307 309 310 310 311 312 313 313 313 313 312 313 313 313 313 313 311 310 308 308 308
239 241 242 243 245 246 247 247 249 249 250 251 252 253 253 254 254 253 253 254 256 257 259 260 260 261 266 269 270 270 271 273 277 281 283 285 287 289 291 292 294 294 294 294 293 293 294 295 298 300 299 294 294 297 299 300 302 302 302 302 303 304 305 305 305 307 308 309 311 312 313 313 314 314 313 313 314 314 314 314 313 312 311 310 310 311
240 241 243 244 245 246 246 246 247 248 248 249 250 251 252 253 253 252 252 253 255 256 256 258 258 260 265 268 268 269 271 274 277 280 282 284 286 289 291 292 293 293 292 292 291 291 292 294 295 296 296 293 293 297 298 299 300 300 300 301 302 303 303 303 305 306 307 309 312 313 313 314 314 314 314 313 314 313 313 313 313 312 311 311 311 312
240 241 241 242 243 244 244 244 244 246 247 248 250 251 251 252 252 251 251 251 252 254 255 257 258 260 263 266 267 269 272 276 278 279 280 283 286 289 291 292 292 291 290 289 289 290 292 293 294 294 295 295 295 300 300 299 300 300 299 299 300 300 300 301 303 305 307 310 312 312 313 313 313 313 313 312 312 312 312 312 312 312 311 311 311 311
239 239 240 241 242 243 244 244 245 246 247 248 249 250 250 250 250 250 250 251 252 253 256 259 260 260 260 263 267 270 273 275 277 278 280 283 286 289 290 291 290 290 289 289 290 292 293 295 297 297 299 299 300 303 302 301 302 302 299 298 298 298 298 298 300 303 306 308 310 311 312 313 313 312 311 311 311 311 311 311 310 310 310 309 309 309
239 240 240 241 242 243 244 244 245 246 246 247 247 248 248 248 249 250 251 253 254 255 257 260 261 260 255 258 267 272 274 274 276 278 281 284 286 288 290 289 289 288 288 290 292 294 296 297 297 298 300 302 304 305 303 302 303 303 301 299 297 297 297 296 297 301 304 306 307 309 312 313 312 311 310 310 310 310 310 309 309 309 308 308 308 308
239 240 240 241 241 242 242 243 243 244 244 245 246 247 248 249 250 251 253 254 256 257 258 259 260 259 256 255 261 269 273 274 276 278 280 283 286 287 288 288 288 288 290 291 293 294 295 294 294 296 299 302 305 307 305 303 303 304 303 301 299 297 297 296 297 300 302 304 305 308 310 311 311 311 310 310 309 309 308 308 308 308 308 308 308 309
239 240 240 240 241 241 242 243 243 244 245 246 247 248 249 250 251 252 253 255 257 257 257 257 258 258 258 254 255 264 270 270 273 276 278 281 284 285 286 286 286 287 288 289 290 290 290 290 291 293 296 299 303 306 306 305 304 304 303 302 301 299 299 299 298 299 300 302 304 306 308 309 310 310 310 309 308 308 307 306 306 307 307 308 309 310
237 238 238 239 240 241 242 243 244 245 245 245 246 247 248 250 251 253 254 256 257 256 255 256 257 258 260 257 256 262 265 265 269 274 276 277 279 280 281 281 282 283 284 285 285 286 286 287 289 291 293 297 300 303 305 304 303 303 303 302 302 300 300 300 299 298 299 300 301 303 304 306 308 308 308 308 308 307 306 306 306 306 307 308 309 310
236 237 238 239 240 241 242 243 244 244 244 245 246 247 249 251 253 254 255 255 255 255 254 255 256 259 261 261 260 260 260 263 267 272 274 276 276 276 275 276 277 278 280 281 282 283 284 285 287 289 292 295 298 300 302 302 302 302 302 302 302 301 301 300 299 298 298 299 299 300 302 304 305 305 305 306 306 306 306 306 306 307 308 309 309 310
237 238 240 240 241 242 243 244 244 245 245 246 247 249 250 252 253 253 253 254 254 254 255 255 258 260 260 260 262 261 261 264 267 269 272 273 273 273 273 273 274 275 276 277 278 280 281 282 285 287 289 293 295 297 298 299 300 301 301 301 302 302 301 300 299 298 297 297 298 299 300 302 302 303 303 303 304 305 306 307 307 307 309 309 310 310
237 238 239 240 241 242 243 243 244 245 246 247 248 249 250 251 252 252 252 253 255 255 257 258 260 261 259 259 261 263 265 267 268 268 268 268 269 271 271 272 272 273 274 275 276 277 278 281 283 285 287 290 292 294 295 297 297 298 299 301 301 301 300 300 300 298 296 296 297 298 300 300 300 300 300 301 302 304 305 306 306 307 308 309 310 310
237 238 239 241 241 242 243 243 244 246 247 248 249 250 250 251 252 252 253 254 255 257 258 259 260 260 259 260 263 265 267 268 268 267 266 267 268 269 269 269 270 270 271 272 274 275 277 280 282 283 285 288 290 292 293 294 294 296 297 299 300 299 298 298 298 297 295 295 296 297 299 299 299 299 299 300 302 303 304 305 306 307 307 308 309 310
238 239 240 241 243 243 244 245 246 247 248 249 250 250 251 251 252 253 254 254 255 256 257 259 261 261 263 265 265 264 264 265 265 266 267 268 268 268 268 268 268 268 269 270 271 273 276 279 281 283 285 287 289 292 293 293 293 294 296 298 298 297 296 295 295 295 295 295 296 296 297 298 298 298 299 300 301 302 303 304 304 305 306 306 307 308
238 239 240 241 243 244 245 245 246 247 248 249 250 250 251 251 252 253 254 254 255 257 258 260 262 264 266 266 264 263 263 263 264 265 266 267 267 268 269 269 269 270 270 271 271 273 276 278 280 282 284 287 290 293 293 292 293 295 296 297 296 295 294 293 294 294 295 294 295 295 295 296 297 298 299 299 300 301 302 302 303 303 304 305 305 306
238 239 239 240 241 243 244 245 247 248 249 249 250 250 251 252 253 254 256 257 258 259 260 261 262 264 265 264 263 262 263 263 264 265 265 266 266 267 268 269 270 270 271 272 273 273 275 277 278 280 282 286 289 292 292 292 293 295 295 295 295 293 293 293 293 293 293 293 293 294 295 296 297 298 298 299 300 301 301 301 301 301 302 303 303 304
239 239 240 240 241 243 244 246 247 248 249 249 250 250 252 253 255 256 258 260 261 262 262 262 261 261 261 261 262 263 264 264 265 265 265 265 265 265 266 267 268 268 270 271 272 273 274 276 278 279 281 284 288 289 290 290 292 293 293 293 292 292 291 291 292 292 292 293 293 294 295 295 296 297 298 298 299 299 299 299 299 300 301 301 302 303
239 240 240 241 241 243 244 245 246 247 248 249 251 252 254 256 257 259 260 261 262 262 261 261 259 258 259 261 262 263 264 265 266 266 266 265 265 264 264 265 266 268 268 269 270 271 273 276 279 280 282 284 286 287 287 288 290 291 292 291 290 290 290 290 291 292 292 293 293 294 294 294 295 295 296 297 297 298 298 298 299 299 300 301 301 302
240 240 240 241 241 242 243 244 246 247 249 251 252 254 256 257 258 259 259 259 259 259 260 260 259 257 259 261 262 263 264 265 265 266 265 265 265 266 265 265 266 267 267 268 269 270 273 276 279 281 282 283 284 284 286 288 290 290 289 289 289 289 290 291 292 292 293 293 293 293 292 292 292 293 294 295 296 296 297 298 298 299 300 300 301 301
241 241 242 242 243 243 244 245 247 248 250 252 254 255 256 257 257 258 258 257 258 258 259 260 260 259 259 261 262 263 264 264 264 264 265 265 265 266 266 266 266 266 266 267 269 271 273 276 279 281 282 283 283 284 286 288 289 289 288 288 289 289 290 292 292 293 293 292 291 290 290 290 291 292 293 293 294 295 296 297 298 298 299 299 300 300
241 241 242 242 242 243 244 245 247 250 252 253 254 254 254 255 255 255 256 256 256 257 259 261 262 263 262 261 262 262 262 263 263 264 265 265 265 265 265 266 266 267 267 267 268 270 273 276 279 281 282 282 283 284 285 286 287 287 288 289 290 291 291 292 292 292 291 291 290 289 289 289 290 291 292 292 293 294 295 296 297 298 298 298 298 298
241 242 242 242 243 244 245 247 249 251 252 251 251 252 253 253 254 255 256 257 257 259 261 262 263 263 262 261 262 262 262 262 262 263 263 264 264 265 266 267 268 268 268 268 270 272 275 277 279 280 281 281 282 282 283 285 286 287 289 290 291 291 291 291 291 291 291 290 289 289 289 289 290 291 291 292 293 294 295 295 296 297 297 297 297 297
242 242 243 244 244 245 246 248 248 249 250 250 251 252 253 254 256 256 257 258 260 260 260 261 261 261 260 262 263 262 263 263 263 264 264 263 263 264 264 266 266 267 268 270 273 275 277 278 279 279 279 280 280 282 283 285 286 288 289 289 289 290 290 290 290 290 289 289 289 289 289 289 290 290 291 292 293 294 294 295 295 295 295 296 296 296
243 244 244 245 245 245 245 246 247 248 250 251 251 252 253 254 255 256 257 259 261 261 260 260 261 260 259 261 263 263 264 265 265 265 265 264 263 263 263 264 265 267 270 272 274 276 277 278 278 278 278 279 280 282 284 285 286 287 287 288 288 288 289 289 289 289 289 289 289 289 289 290 290 291 292 292 293 293 293 294 294 294 294 295 295 295
244 245 245 245 246 245 245 246 246 248 249 250 251 252 252 254 255 256 258 259 260 261 260 260 261 261 260 261 264 265 266 266 266 265 264 264 264 264 265 266 268 270 272 274 275 275 276 277 277 277 278 279 281 282 284 285 285 285 285 286 287 288 288 289 289 289 289 289 289 290 290 291 291 292 292 293 293 293 293 293 293 293 294 294 295 296
245 245 246 246 246 246 246 246 247 248 249 250 250 251 252 253 254 256 258 259 260 261 261 261 261 261 261 262 264 265 265 265 265 264 265 265 265 266 268 269 271 272 273 274 275 276 277 277 277 278 280 281 282 282 283 283 283 284 284 285 286 287 288 289 289 289 290 290 290 291 291 291 291 291 291 291 292 292 292 292 293 294 294 294 295 296
244 245 245 246 246 246 245 246 247 248 248 249 249 250 251 252 255 257 258 259 259 260 261 261 260 260 262 263 263 263 263 264 265 266 267 268 268 269 270 271 272 273 274 275 276 277 277 278 278 279 280 281 282 282 282 282 283 284 284 285 286 286 287 287 288 288 289 289 290 290 290 290 290 290 290 290 290 291 292 293 293 294 294 295 295 296
243 243 244 245 245 245 245 246 248 248 248 248 248 249 251 254 256 257 257 258 259 260 261 260 260 261 262 262 262 263 264 265 266 266 268 269 270 271 271 272 273 274 275 275 276 276 277 277 278 279 280 280 281 281 282 282 283 283 283 284 284 285 286 286 287 287 287 288 288 288 288 288 288 288 289 289 290 291 292 292 293 293 293 294 294 295
242 243 243 244 245 245 245 246 247 248 248 248 248 250 253 254 255 255 256 257 258 260 261 261 262 262 262 262 263 264 265 265 265 266 267 269 271 272 273 274 275 275 276 276 276 276 277 278 279 279 280 281 281 281 281 282 282 282 282 283 283 284 284 285 285 286 286 287 287 287 287 287 287 288 288 289 290 290 291 291 291 291 292 293 293 294
242 243 244 245 246 246 246 246 247 248 248 249 250 251 253 253 254 255 256 257 259 260 261 262 263 263 263 263 264 264 264 265 266 267 269 270 271 272 273 274 274 275 276 276 277 278 279 279 280 280 280 281 281 281 281 281 281 281 282 282 283 283 284 285 285 286 286 286 287 287 287 287 288 288 288 289 289 289 289 290 290 290 291 291 292 293
243 244 245 245 246 247 247 247 247 249 250 252 252 252 252 254 255 256 257 258 259 260 261 262 263 263 264 264 264 264 265 266 267 269 269 270 271 272 273 273 274 275 276 276 277 278 279 279 280 280 280 280 280 280 280 281 281 281 282 282 283 284 284 285 285 286 286 287 287 287 287 287 288 288 288 288 289 289 289 289 289 290 291 291 292 292
244 245 246 246 247 248 248 249 250 252 253 253 253 253 255 256 258 258 259 259 259 260 261 262 263 264 264 265 265 266 266 267 268 268 269 270 271 272 273 274 275 275 276 277 277 278 278 279 279 279 279 280 280 280 280 281 281 282 282 283 283 284 284 285 285 285 286 286 286 286 286 286 287 287 288 288 288 289 289 289 290 291 291 291 291 290
245 246 247 248 249 250 251 251 252 253 253 253 254 256 257 258 258 259 259 258 258 260 262 263 264 264 264 265 265 266 267 267 268 269 269 270 271 272 272 273 274 275 276 276 277 278 278 279 279 279 279 280 280 280 281 281 282 282 283 283 283 283 284 284 284 284 285 284 285 285 285 285 286 286 287 287 288 288 289 289 290 290 289 289 288 288
246 247 248 249 250 251 251 252 253 253 254 254 255 256 256 257 258 259 259 259 259 261 263 264 264 264 264 264 265 266 267 267 268 269 270 271 271 272 272 273 274 275 276 276 277 278 278 279 279 279 280 280 280 281 281 282 282 282 283 283 283 283 284 284 284 284 284 284 284 284 285 285 285 286 286 287 287 288 288 288 288 287 286 286 285 285
247 248 249 250 251 251 252 253 253 254 255 255 255 256 256 257 258 259 260 260 261 263 264 265 265 264 265 265 266 267 267 268 269 270 270 271 272 273 273 274 275 276 276 277 277 278 278 278 278 279 279 280 280 281 281 281 282 282 282 283 283 283 283 283 283 284 284 284 284 284 285 285 285 286 286 286 287 286 286 285 284 283 283 283 283 283
246 248 249 250 251 252 253 254 255 255 256 256 256 256 257 257 258 259 260 262 263 264 264 265 265 266 266 267 268 268 269 270 270 271 271 272 273 273 274 275 275 276 276 277 277 278 278 278 279 279 279 280 280 280 281 281 281 282 282 282 282 282 283 283 283 283 283 284 284 284 285 285 285 286 286 285 285 284 283 282 281 281 281 281 281 281
246 247 249 250 251 253 254 255 256 256 257 257 257 257 257 257 258 260 261 263 263 263 263 265 266 267 267 267 268 269 270 271 271 272 272 273 273 274 274 275 275 276 277 277 277 278 278 279 279 280 280 280 280 281 281 281 281 281 281 281 282 282 282 282 282 283 283 283 283 284 284 284 284 284 284 283 283 282 281 280 280 279 279 279 279 280
247 248 249 250 251 253 254 255 256 257 257 258 258 259 259 259 260 261 262 263 263 263 264 265 266 267 268 268 269 270 271 272 272 273 273 274 274 275 275 276 276 276 277 277 277 278 278 279 279 279 279 280 280 280 280 280 280 280 280 280 281 281 281 282 282 282 282 282 282 282 282 282 282 282 281 281 281 280 280 279 279 279 278 278 278 278
249 250 250 251 252 253 254 255 256 257 257 258 259 259 260 260 261 262 262 263 263 264 265 266 266 267 268 269 270 271 272 273 273 274 275 275 275 276 276 276 277 277 277 277 277 278 278 278 278 278 279 279 279 278 278 279 279 279 279 280 280 280 280 280 280 280 280 280 280 279 279 279 279 279 279 279 279 279 279 278 278 278 278 278 278 278
249 250 252 252 253 254 255 256 257 258 258 258 258 259 260 261 262 263 263 264 265 266 266 267 268 268 269 270 271 271 272 273 274 274 275 275 276 276 276 276 277 277 277 277 277 277 277 278 278 278 278 277 277 277 277 277 277 278 278 278 278 278 278 278 277 277 277 277 277 277 277 277 277 277 277 277 277 277 277 277 277 277 277 277 277 278
251 251 252 253 254 255 256 257 258 259 259 259 260 260 261 262 263 264 265 265 266 266 267 267 268 269 269 270 271 271 272 272 273 273 273 274 274 275 275 275 275 275 275 275 276 276 276 276 276 276 276 276 275 275 275 275 275 275 275 275 275 275 275 275 275 275 275 275 275 275 275 275 275 275 275 276 276 276 276 276 276 276 276 277 277 277
252 253 253 254 255 256 257 258 259 260 260 261 262 262 263 263 264 265 265 266 266 266 267 267 267 268 268 269 269 270 270 271 271 271 272 272 272 272 273 273 273 273 273 273 273 273 273 273 274 274 274 274 274 274 273 273 273 273 273 273 273 274 274 274 274 275 275 275 275 275 275 275 275 275 275 275 275 275 275 275 276 276 277 277 278 278
254 254 255 255 256 256 257 258 259 260 261 262 263 263 264 265 265 265 266 266 266 266 266 266 267 267 268 268 268 269 269 269 269 269 269 269 270 270 270 270 270 270 271 271 271 271 271 272 272 272 272 273 273 273 273 273 273 272 272 272 272 272 273 273 273 274 274 275 275 275 275 275 275 275 275 275 275 275 275 276 276 277 277 278 279 280
255 255 255 256 256 257 258 258 259 260 261 262 263 264 264 264 265 265 265 265 265 266 266 267 267 268 268 268 268 268 268 268 268 268 268 268 268 268 268 268 269 269 270 270 271 271 271 271 271 271 271 272 272 272 273 273 273 272 272 272 271 271 271 272 272 273 273 274 274 275 275 275 276 276 276 277 277 277 277 278 278 279 280 282 283 284
255 255 256 256 257 257 258 259 260 260 261 261 262 262 262 263 263 264 264 265 266 266 267 267 268 268 268 269 268 268 268 268 269 269 269 269 270 270 270 270 269 270 270 270 270 270 271 271 271 271 271 271 271 272 272 273 273 273 273 273 272 272 272 272 272 273 273 274 274 275 276 276 277 278 278 279 280 281 282 283 284 285 286 287 288 289
256 257 257 258 258 259 259 260 260 260 260 260 261 262 262 263 263 264 265 265 266 267 267 268 268 269 269 269 270 270 270 270 271 271 271 271 272 272 272 272 272 272 271 271 271 271 271 271 272 272 273 273 273 273 273 273 274 274 274 274 274 274 274 274 274 275 276 277 277 278 279 280 281 282 283 284 284 285 286 287 289 290 290 291 291 291
257 258 259 259 260 260 260 260 261 261 262 262 263 263 263 264 264 264 265 265 266 266 267 267 268 269 269 269 270 270 271 271 272 272 273 273 274 274 274 275 275 275 275 275 274 274 274 274 274 274 275 275 276 276 276 277 277 277 277 277 277 277 277 277 278 279 280 282 284 285 286 288 288 289 290 290 290 290 290 290 290 290 291 291 291 291
Height
10759 10763 10766 10767 10766 10768 10771 10774 10779 10782 10783 10783 10785 10787 10788 10788 10790 10793 10795 10797 10799 10799 10799 10799 10799 10799 10799 10800 10801 10801 10800 10799 10799 10800 10800 10799 10799 10798 10798 10797 10795 10794 10794 10794 10795 10796 10798 10799 10798 10795 10793 10791 10788 10787 10784 10782 10780 10778 10776 10774 10773 10771 10770 10768 10766 10764 10762 10759 10757 10756 10755 10754 10752 10751 10749 10748 10745 10743 10740 10738 10736 10734 10732 10730 10729 10728
10754 10758 10758 10758 10760 10764 10768 10771 10775 10777 10776 10777 10778 10780 10782 10783 10785 10788 10791 10793 10794 10794 10794 10795 10796 10793 10793 10795 10796 10797 10796 10793 10795 10796 10796 10796 10795 10794 10794 10793 10791 10789 10788 10789 10789 10790 10792 10794 10795 10793 10790 10787 10785 10783 10781 10779 10777 10775 10773 10771 10770 10768 10766 10765 10763 10761 10758 10756 10754 10752 10751 10750 10748 10746 10745 10743 10742 10740 10737 10734 10732 10730 10727 10725 10724 10723
10749 10750 10750 10753 10757 10760 10763 10766 10769 10770 10770 10771 10772 10774 10777 10779 10781 10783 10786 10787 10787 10788 10790 10793 10793 10788 10787 10791 10792 10793 10791 10787 10788 10791 10791 10791 10790 10789 10789 10788 10786 10785 10784 10784 10784 10785 10786 10789 10791 10790 10788 10785 10783 10780 10778 10776 10773 10772 10770 10768 10766 10765 10763 10761 10759 10757 10755 10753 10751 10748 10747 10745 10744 10742 10740 10738 10737 10736 10734 10731 10729 10726 10724 10721 10719 10718
10741 10742 10744 10749 10752 10754 10758 10760 10762 10764 10764 10765 10767 10769 10771 10774 10776 10778 10780 10781 10782 10784 10786 10790 10790 10784 10782 10787 10788 10788 10786 10782 10783 10786 10786 10785 10784 10783 10783 10782 10780 10779 10779 10779 10779 10779 10780 10783 10786 10786 10785 10782 10780 10778 10775 10773 10770 10768 10766 10764 10763 10761 10759 10758 10756 10754 10753 10751 10748 10745 10743 10742 10740 10738 10736 10734 10733 10731 10730 10728 10726 10723 10721 10718 10715 10713
10734 10737 10741 10745 10747 10749 10753 10755 10756 10758 10758 10760 10761 10763 10766 10768 10771 10772 10773 10774 10777 10780 10781 10784 10787 10783 10779 10782 10784 10782 10780 10778 10780 10782 10781 10780 10778 10778 10777 10776 10776 10774 10773 10773 10773 10773 10775 10777 10780 10782 10781 10780 10777 10776 10773 10770 10768 10765 10763 10761 10759 10757 10756 10754 10753 10751 10750 10748 10746 10743 10741 10739 10737 10735 10732 10730 10729 10727 10726 10724 10723 10720 10717 10714 10712 10709
10730 10733 10737 10739 10741 10744 10746 10749 10750 10751 10753 10754 10755 10757 10759 10762 10765 10766 10767 10769 10772 10776 10777 10778 10782 10782 10776 10777 10778 10775 10774 10775 10777 10778 10776 10773 10772 10772 10771 10771 10771 10770 10769 10768 10768 10768 10768 10771 10775 10777 10777 10776 10775 10773 10771 10768 10765 10762 10760 10758 10756 10754 10752 10751 10749 10748 10747 10745 10743 10740 10738 10736 10734 10731 10729 10727 10725 10723 10722 10720 10718 10716 10713 10710 10708 10706
10726 10729 10732 10733 10735 10737 10740 10742 10743 10744 10745 10747 10749 10751 10752 10755 10758 10761 10762 10764 10767 10770 10771 10773 10778 10779 10774 10772 10771 10769 10769 10771 10774 10774 10771 10767 10766 10766 10766 10765 10765 10765 10764 10763 10762 10762 10762 10765 10768 10771 10773 10773 10772 10770 10768 10765 10763 10760 10758 10755 10753 10751 10749 10747 10746 10744 10742 10741 10739 10737 10735 10733 10731 10729 10726 10724 10721 10719 10717 10715 10714 10711 10709 10706 10704 10702
10720 10722 10724 10725 10727 10730 10732 10735 10735 10737 10739 10742 10744 10745 10748 10750 10752 10755 10756 10758 10762 10764 10766 10768 10772 10776 10774 10766 10763 10764 10766 10766 10768 10768 10766 10762 10760 10760 10760 10760 10759 10758 10758 10757 10756 10756 10756 10757 10759 10764 10768 10769 10768 10766 10764 10762 10760 10757 10755 10753 10751 10748 10746 10744 10742 10740 10739 10737 10735 10733 10732 10730 10728 10726 10723 10720 10718 10715 10713 10711 10709 10707 10704 10702 10700 10697
10711 10714 10716 10719 10721 10724 10726 10728 10730 10732 10735 10737 10738 10739 10742 10744 10745 10747 10749 10753 10756 10759 10763 10763 10764 10772 10774 10763 10757 10761 10763 10762 10761 10760 10760 10757 10756 10756 10755 10754 10753 10751 10750 10749 10749 10750 10749 10748 10748 10751 10759 10763 10763 10761 10760 10758 10756 10754 10752 10750 10747 10745 10743 10741 10739 10737 10735 10733 10731 10729 10728 10726 10724 10722 10719 10716 10714 10712 10709 10706 10704 10702 10700 10698 10695 10693
10705 10709 10711 10715 10717 10719 10720 10722 10725 10726 10729 10731 10731 10733 10734 10736 10738 10740 10743 10746 10748 10754 10760 10758 10756 10764 10772 10765 10757 10756 10757 10756 10755 10753 10753 10752 10751 10751 10750 10748 10746 10744 10742 10742 10741 10741 10740 10739 10738 10740 10746 10753 10756 10756 10755 10754 10752 10750 10748 10745 10743 10741 10739 10737 10735 10733 10731 10729 10726 10724 10723 10722 10720 10717 10714 10712 10710 10707 10705 10702 10700 10698 10696 10693 10691 10689
10701 10702 10706 10709 10710 10711 10712 10714 10717 10719 10722 10723 10724 10726 10726 10728 10731 10733 10737 10739 10742 10751 10756 10752 10749 10754 10766 10768 10760 10755 10752 10748 10748 10748 10748 10747 10747 10746 10744 10741 10738 10736 10735 10734 10734 10734 10733 10733 10732 10734 10737 10741 10745 10748 10749 10748 10747 10745 10743 10741 10739 10737 10735 10733 10731 10729 10727 10724 10721 10719 10718 10716 10714 10712 10709 10707 10705 10703 10700 10697 10695 10693 10691 10688 10686 10684
10694 10696 10700 10702 10702 10703 10704 10706 10709 10712 10716 10718 10718 10718 10718 10721 10723 10726 10731 10732 10737 10747 10748 10745 10743 10746 10760 10766 10759 10757 10753 10744 10741 10743 10743 10744 10743 10742 10740 10736 10733 10731 10729 10729 10729 10729 10729 10728 10728 10730 10732 10733 10735 10738 10740 10741 10740 10739 10737 10735 10734 10732 10730 10729 10727 10725 10722 10720 10717 10714 10712 10710 10709 10706 10704 10702 10700 10698 10696 10693 10690 10688 10686 10684 10681 10679
10684 10686 10690 10692 10694 10696 10697 10699 10703 10706 10709 10709 10709 10708 10709 10713 10716 10721 10726 10727 10732 10738 10738 10737 10736 10741 10754 10758 10755 10756 10751 10742 10739 10740 10740 10741 10741 10740 10737 10733 10730 10728 10725 10725 10725 10725 10724 10723 10724 10725 10727 10728 10728 10729 10731 10732 10732 10731 10730 10729 10728 10727 10725 10723 10722 10720 10718 10715 10712 10709 10707 10705 10703 10700 10698 10696 10694 10692 10690 10688 10685 10683 10681 10679 10677 10674
10676 10679 10683 10686 10688 10689 10690 10692 10694 10696 10696 10698 10700 10701 10704 10708 10712 10718 10719 10720 10723 10727 10729 10729 10731 10741 10750 10748 10748 10749 10744 10740 10740 10738 10737 10737 10737 10738 10735 10731 10728 10726 10722 10721 10721 10720 10719 10718 10719 10720 10721 10722 10722 10722 10723 10724 10724 10724 10723 10723 10722 10721 10720 10718 10716 10714 10712 10709 10707 10704 10701 10699 10697 10695 10692 10690 10688 10686 10684 10682 10680 10677 10675 10673 10671 10669
10672 10675 10679 10680 10680 10681 10682 10683 10684 10685 10687 10692 10694 10696 10701 10704 10707 10709 10709 10710 10713 10716 10720 10723 10729 10741 10745 10739 10739 10739 10736 10737 10739 10737 10735 10732 10731 10731 10730 10727 10725 10722 10719 10717 10717 10715 10714 10714 10714 10715 10716 10717 10717 10717 10717 10718 10717 10716 10716 10716 10715 10715 10714 10712 10710 10708 10705 10703 10700 10698 10695 10693 10691 10688 10686 10684 10682 10680 10678 10676 10673 10671 10669 10667 10665 10663
10665 10669 10670 10668 10669 10671 10672 10673 10674 10677 10680 10684 10687 10690 10696 10697 10696 10698 10699 10703 10706 10708 10713 10719 10727 10735 10735 10732 10733 10730 10730 10732 10733 10732 10731 10728 10726 10725 10723 10721 10719 10717 10714 10713 10713 10711 10709 10710 10710 10710 10712 10713 10714 10713 10712 10711 10711 10710 10709 10709 10709 10708 10707 10705 10703 10700 10698 10695 10693 10691 10689 10687 10684 10682 10679 10677 10675 10674 10672 10669 10667 10664 10663 10660 10658 10656
10657 10659 10658 10657 10659 10660 10661 10664 10666 10669 10672 10676 10681 10686 10689 10687 10686 10688 10693 10697 10699 10701 10708 10713 10720 10725 10725 10727 10730 10726 10725 10725 10723 10724 10722 10721 10721 10720 10717 10714 10712 10711 10709 10708 10708 10707 10705 10705 10705 10704 10706 10708 10709 10709 10707 10706 10705 10704 10704 10703 10703 10702 10700 10698 10695 10692 10690 10688 10686 10684 10682 10679 10677 10675 10672 10670 10668 10667 10664 10662 10660 10657 10655 10653 10651 10649
10648 10649 10649 10649 10651 10652 10653 10656 10659 10663 10666 10671 10676 10678 10677 10676 10678 10681 10685 10689 10691 10694 10702 10707 10712 10716 10718 10723 10725 10721 10720 10718 10715 10715 10715 10714 10713 10711 10710 10707 10705 10704 10703 10704 10705 10703 10702 10702 10699 10698 10699 10701 10702 10703 10702 10700 10699 10699 10698 10698 10696 10695 10693 10690 10687 10685 10683 10681 10679 10677 10674 10672 10670 10667 10665 10663 10661 10659 10657 10655 10652 10650 10648 10645 10643 10641
10637 10638 10640 10641 10642 10643 10644 10646 10652 10657 10660 10664 10666 10666 10665 10667 10671 10672 10674 10680 10684 10687 10696 10703 10707 10711 10714 10716 10716 10713 10712 10711 10710 10710 10709 10707 10705 10703 10701 10699 10698 10696 10695 10697 10699 10698 10697 10697 10695 10692 10691 10693 10694 10695 10695 10693 10694 10693 10692 10691 10689 10687 10685 10682 10680 10678 10675 10674 10672 10670 10667 10664 10662 10660 10658 10655 10653 10651 10649 10647 10645 10643 10640 10638 10635 10633
10624 10625 10628 10632 10632 10632 10634 10639 10647 10652 10652 10653 10653 10653 10655 10657 10662 10664 10666 10672 10677 10681 10690 10697 10702 10709 10709 10706 10705 10705 10705 10704 10704 10703 10701 10700 10698 10696 10693 10691 10691 10690 10688 10688 10690 10691 10690 10691 10691 10689 10686 10686 10686 10687 10687 10686 10687 10688 10686 10684 10681 10678 10676 10674 10673 10670 10668 10666 10664 10662 10660 10657 10655 10652 10650 10648 10646 10644 10641 10639 10637 10635 10633 10630 10627 10625
10611 10614 10619 10624 10623 10625 10632 10638 10642 10642 10638 10638 10641 10643 10648 10652 10656 10659 10661 10666 10670 10674 10681 10687 10696 10705 10703 10696 10696 10697 10697 10697 10696 10694 10694 10692 10690 10689 10686 10685 10684 10684 10683 10682 10682 10682 10681 10683 10685 10684 10682 10682 10681 10680 10680 10680 10681 10681 10679 10676 10673 10670 10668 10666 10665 10663 10661 10659 10657 10655 10653 10650 10647 10644 10642 10640 10638 10636 10633 10631 10629 10627 10625 10622 10619 10616
10604 10606 10609 10613 10616 10622 10627 10628 10628 10627 10626 10629 10634 10639 10645 10648 10651 10654 10657 10661 10662 10663 10669 10674 10686 10699 10697 10690 10690 10690 10689 10689 10687 10684 10684 10682 10679 10678 10679 10678 10678 10677 10677 10676 10675 10674 10674 10675 10677 10678 10677 10676 10675 10673 10672 10673 10675 10675 10672 10669 10666 10663 10660 10658 10657 10656 10655 10653 10650 10648 10646 10643 10640 10637 10635 10633 10630 10628 10626 10623 10621 10619 10617 10614 10611 10608
10590 10592 10596 10601 10608 10614 10615 10616 10619 10621 10622 10625 10630 10638 10642 10642 10645 10645 10647 10650 10649 10651 10658 10662 10674 10692 10692 10683 10683 10684 10682 10681 10679 10675 10672 10671 10669 10668 10669 10671 10671 10670 10669 10668 10667 10667 10668 10669 10670 10671 10671 10670 10668 10666 10664 10665 10666 10665 10663 10661 10659 10656 10653 10651 10650 10649 10648 10646 10643 10640 10638 10635 10632 10630 10628 10625 10622 10620 10618 10616 10613 10610 10608 10606 10603 10600
10579 10582 10589 10596 10601 10605 10606 10609 10614 10616 10619 10623 10630 10635 10634 10634 10635 10632 10632 10637 10637 10644 10652 10651 10663 10684 10687 10678 10676 10677 10674 10671 10669 10664 10660 10661 10661 10659 10659 10661 10661 10660 10660 10661 10660 10660 10660 10662 10664 10665 10665 10664 10660 10658 10657 10656 10655 10653 10652 10652 10652 10650 10647 10645 10643 10641 10640 10639 10636 10633 10629 10626 10624 10622 10620 10617 10614 10611 10609 10608 10605 10603 10600 10597 10594 10591
10567 10570 10579 10584 10588 10593 10597 10604 10611 10615 10618 10620 10622 10622 10620 10621 10619 10617 10621 10623 10627 10641 10645 10642 10658 10676 10676 10669 10668 10667 10664 10661 10658 10655 10652 10651 10651 10651 10651 10652 10652 10651 10652 10652 10652 10652 10654 10656 10658 10659 10659 10657 10652 10649 10649 10647 10644 10642 10641 10641 10643 10642 10640 10638 10635 10633 10632 10630 10628 10624 10620 10616 10615 10614 10611 10608 10605 10602 10600 10598 10596 10594 10592 10589 10586 10582
10553 10559 10568 10573 10579 10589 10597 10606 10613 10611 10604 10602 10605 10608 10608 10607 10606 10608 10612 10612 10623 10640 10639 10637 10655 10665 10660 10658 10659 10656 10654 10650 10648 10646 10643 10642 10642 10643 10644 10644 10643 10642 10641 10641 10643 10646 10649 10651 10652 10653 10652 10649 10644 10640 10639 10637 10635 10633 10632 10632 10632 10632 10630 10628 10626 10624 10622 10619 10617 10615 10611 10608 10606 10604 10602 10599 10597 10594 10591 10588 10587 10585 10582 10580 10577 10573
10543 10551 10560 10566 10576 10588 10597 10602 10601 10592 10585 10588 10598 10602 10599 10599 10599 10600 10602 10608 10623 10631 10626 10632 10646 10648 10649 10651 10647 10646 10643 10638 10638 10636 10632 10633 10635 10636 10637 10635 10633 10632 10631 10633 10637 10639 10641 10643 10645 10644 10642 10638 10635 10632 10630 10629 10627 10625 10624 10623 10622 10622 10621 10619 10617 10615 10612 10610 10608 10605 10603 10601 10598 10595 10592 10591 10589 10585 10582 10579 10577 10575 10572 10570 10567 10563
10535 10543 10555 10562 10570 10580 10587 10588 10583 10578 10577 10583 10590 10591 10589 10590 10590 10590 10595 10609 10617 10611 10613 10631 10633 10629 10642 10644 10634 10635 10634 10627 10627 10625 10620 10622 10624 10625 10627 10626 10624 10624 10626 10630 10632 10632 10634 10634 10634 10632 10631 10630 10628 10625 10623 10621 10619 10617 10615 10613 10612 10613 10612 10611 10609 10606 10604 10602 10600 10596 10595 10593 10590 10586 10583 10581 10579 10576 10574 10571 10568 10565 10563 10559 10556 10554
10528 10536 10548 10554 10559 10568 10574 10572 10570 10570 10572 10574 10577 10579 10580 10581 10582 10586 10594 10605 10604 10593 10604 10624 10618 10615 10634 10636 10624 10625 10623 10614 10614 10611 10608 10611 10613 10613 10616 10617 10617 10619 10621 10624 10624 10623 10624 10624 10622 10621 10620 10621 10620 10618 10616 10613 10611 10608 10606 10604 10602 10602 10602 10601 10599 10596 10594 10592 10589 10587 10585 10584 10580 10577 10574 10571 10568 10566 10564 10562 10559 10556 10553 10549 10545 10543
10519 10528 10538 10542 10547 10555 10559 10558 10560 10562 10562 10563 10566 10568 10570 10572 10576 10583 10591 10597 10592 10583 10594 10610 10605 10607 10624 10624 10617 10615 10608 10601 10600 10597 10596 10600 10603 10605 10607 10609 10611 10612 10613 10613 10612 10612 10613 10611 10610 10610 10610 10611 10610 10609 10608 10605 10602 10600 10597 10595 10593 10592 10592 10591 10588 10586 10584 10581 10578 10577 10576 10574 10571 10569 10566 10562 10559 10556 10554 10552 10549 10546 10542 10538 10534 10531
10510 10518 10527 10530 10531 10537 10546 10549 10550 10550 10549 10551 10552 10556 10562 10568 10574 10581 10585 10585 10579 10575 10585 10592 10591 10603 10615 10610 10604 10602 10594 10589 10589 10587 10586 10589 10593 10596 10597 10599 10602 10603 10603 10603 10602 10602 10601 10599 10598 10599 10599 10600 10599 10598 10597 10595 10593 10590 10587 10585 10583 10582 10581 10580 10579 10576 10574 10572 10569 10568 10566 10564 10563 10560 10557 10553 10550 10547 10544 10541 10539 10535 10530 10527 10524 10521
10501 10507 10515 10517 10514 10523 10540 10542 10537 10536 10534 10531 10538 10553 10563 10569 10573 10575 10572 10570 10568 10569 10573 10573 10580 10599 10605 10593 10590 10590 10583 10580 10580 10578 10578 10580 10582 10584 10586 10589 10591 10592 10592 10592 10591 10591 10589 10588 10589 10588 10589 10589 10589 10587 10586 10584 10582 10579 10577 10575 10572 10571 10570 10569 10568 10566 10564 10563 10561 10559 10557 10555 10553 10551 10547 10544 10541 10538 10535 10532 10529 10524 10520 10517 10514 10511
10494 10498 10505 10506 10504 10515 10531 10530 10524 10520 10510 10513 10540 10563 10565 10563 10564 10561 10558 10560 10562 10560 10559 10560 10574 10589 10587 10579 10582 10581 10570 10566 10567 10568 10572 10574 10573 10574 10576 10577 10578 10579 10579 10579 10578 10578 10578 10578 10578 10578 10579 10578 10577 10576 10574 10573 10571 10568 10567 10565 10563 10562 10560 10558 10557 10556 10554 10553 10551 10549 10547 10545 10544 10541 10537 10534 10531 10528 10526 10523 10519 10515 10511 10508 10504 10501
10487 10491 10496 10497 10495 10504 10517 10517 10508 10496 10492 10517 10552 10561 10552 10551 10552 10548 10549 10554 10554 10549 10548 10553 10566 10575 10570 10568 10572 10566 10556 10553 10556 10561 10566 10566 10565 10565 10566 10566 10566 10566 10566 10566 10567 10567 10567 10567 10567 10567 10567 10566 10565 10564 10562 10561 10560 10557 10556 10554 10552 10551 10549 10547 10546 10544 10543 10541 10538 10536 10534 10532 10531 10529 10525 10522 10520 10517 10515 10512 10508 10504 10501 10498 10495 10491
10480 10483 10485 10487 10486 10491 10501 10500 10487 10481 10500 10531 10545 10541 10540 10542 10541 10539 10543 10547 10545 10540 10539 10543 10554 10562 10558 10553 10554 10551 10545 10546 10549 10552 10555 10554 10555 10556 10555 10555 10555 10555 10555 10556 10556 10557 10556 10556 10556 10555 10554 10554 10553 10552 10550 10549 10548 10545 10544 10543 10541 10539 10537 10536 10534 10532 10531 10528 10524 10522 10521 10518 10517 10515 10512 10510 10507 10505 10502 10498 10495 10492 10489 10486 10484 10480
10472 10474 10475 10477 10476 10479 10485 10484 10477 10485 10508 10523 10524 10529 10537 10535 10531 10530 10530 10534 10535 10529 10526 10534 10546 10552 10546 10539 10539 10538 10535 10536 10539 10541 10544 10544 10545 10545 10545 10544 10544 10543 10544 10545 10545 10546 10545 10545 10544 10543 10542 10541 10540 10539 10537 10536 10535 10533 10531 10530 10529 10528 10525 10524 10523 10521 10519 10516 10512 10510 10508 10506 10504 10502 10499 10496 10494 10491 10488 10484 10481 10478 10474 10473 10471 10467
10465 10464 10465 10466 10466 10470 10473 10474 10476 10481 10492 10507 10519 10530 10531 10522 10519 10515 10510 10517 10524 10519 10518 10529 10538 10539 10533 10526 10526 10525 10523 10523 10526 10530 10534 10535 10534 10534 10534 10534 10533 10533 10533 10533 10533 10533 10533 10532 10531 10530 10528 10526 10526 10525 10525 10523 10521 10520 10518 10516 10516 10515 10513 10512 10511 10509 10507 10504 10500 10498 10496 10493 10492 10490 10487 10484 10481 10478 10474 10471 10468 10464 10460 10459 10458 10455
10455 10455 10456 10455 10455 10459 10460 10462 10464 10464 10478 10506 10522 10521 10515 10508 10504 10498 10491 10500 10516 10517 10516 10521 10523 10522 10519 10515 10513 10512 10510 10512 10516 10520 10523 10523 10523 10523 10523 10523 10523 10523 10522 10521 10521 10520 10520 10518 10517 10515 10514 10513 10512 10511 10511 10510 10508 10506 10504 10503 10502 10501 10500 10499 10497 10495 10493 10490 10487 10485 10482 10479 10478 10476 10473 10471 10468 10465 10461 10458 10455 10452 10449 10447 10445 10443
10442 10443 10446 10444 10442 10446 10447 10449 10452 10455 10476 10504 10510 10503 10500 10497 10492 10482 10472 10486 10512 10517 10508 10505 10504 10504 10504 10502 10501 10500 10499 10502 10507 10508 10508 10510 10511 10511 10510 10510 10510 10510 10510 10509 10508 10506 10505 10504 10502 10501 10501 10500 10499 10498 10497 10496 10494 10492 10491 10489 10487 10486 10485 10483 10482 10480 10478 10475 10472 10469 10467 10464 10463 10461 10459 10457 10454 10451 10449 10446 10443 10439 10437 10435 10433 10431
10431 10433 10434 10432 10432 10436 10437 10437 10441 10448 10469 10490 10491 10488 10488 10483 10475 10464 10460 10483 10510 10507 10491 10487 10487 10488 10491 10491 10489 10488 10488 10491 10493 10493 10494 10497 10498 10498 10498 10497 10497 10496 10496 10495 10493 10492 10490 10489 10488 10487 10486 10486 10485 10484 10483 10482 10480 10478 10476 10474 10473 10471 10470 10468 10466 10464 10462 10460 10457 10454 10452 10450 10448 10446 10444 10442 10441 10439 10437 10434 10431 10428 10425 10423 10421 10419
10421 10422 10422 10422 10425 10427 10426 10426 10428 10438 10457 10472 10473 10472 10472 10466 10459 10456 10464 10484 10494 10484 10476 10476 10473 10473 10478 10478 10477 10477 10476 10477 10479 10479 10481 10482 10483 10484 10484 10483 10483 10483 10482 10481 10480 10478 10476 10474 10473 10471 10471 10471 10470 10469 10468 10467 10465 10463 10461 10459 10458 10457 10455 10453 10452 10449 10447 10445 10443 10440 10438 10436 10434 10432 10430 10428 10427 10426 10424 10421 10418 10416 10413 10410 10408 10406
10410 10411 10411 10413 10416 10417 10417 10416 10414 10423 10445 10459 10456 10454 10453 10449 10448 10455 10463 10468 10466 10464 10467 10466 10461 10462 10464 10464 10466 10466 10464 10464 10465 10465 10465 10466 10467 10468 10468 10467 10467 10467 10467 10467 10466 10464 10462 10459 10457 10456 10456 10456 10455 10454 10453 10451 10449 10447 10446 10444 10444 10442 10441 10439 10437 10435 10433 10431 10429 10427 10425 10423 10421 10419 10417 10415 10413 10412 10410 10407 10404 10402 10400 10397 10395 10392
10398 10397 10397 10402 10407 10407 10406 10404 10401 10413 10437 10446 10439 10435 10435 10435 10439 10447 10449 10448 10449 10454 10455 10452 10451 10451 10450 10451 10454 10453 10452 10452 10451 10450 10451 10451 10451 10452 10451 10451 10451 10450 10450 10450 10449 10448 10447 10444 10442 10441 10440 10440 10440 10440 10439 10438 10435 10433 10431 10430 10430 10428 10427 10425 10423 10422 10420 10418 10416 10414 10412 10410 10408 10406 10404 10402 10400 10398 10396 10393 10391 10388 10385 10382 10380 10377
10384 10385 10387 10393 10397 10394 10392 10394 10396 10407 10421 10425 10421 10422 10423 10424 10428 10432 10433 10436 10439 10441 10440 10439 10438 10436 10436 10439 10441 10439 10440 10440 10437 10436 10437 10436 10436 10436 10435 10435 10435 10434 10434 10433 10433 10433 10432 10429 10428 10426 10424 10424 10425 10424 10424 10424 10423 10420 10418 10417 10416 10415 10414 10412 10410 10409 10407 10405 10403 10402 10400 10398 10395 10393 10391 10389 10386 10385 10382 10379 10376 10374 10371 10367 10364 10362
10371 10375 10378 10381 10382 10379 10379 10384 10389 10395 10401 10404 10407 10411 10412 10413 10417 10419 10421 10423 10425 10425 10426 10425 10424 10423 10423 10425 10425 10426 10426 10425 10424 10424 10423 10422 10422 10422 10420 10421 10420 10419 10419 10419 10419 10419 10418 10416 10415 10412 10409 10409 10410 10410 10410 10410 10410 10409 10407 10404 10403 10402 10401 10399 10397 10395 10393 10391 10390 10388 10386 10385 10382 10379 10377 10375 10372 10370 10368 10364 10361 10358 10355 10351 10348 10346
10358 10362 10365 10366 10367 10367 10368 10374 10379 10384 10387 10390 10394 10396 10398 10401 10404 10406 10406 10407 10409 10410 10411 10409 10409 10411 10411 10411 10412 10413 10411 10410 10411 10411 10410 10410 10410 10408 10408 10408 10406 10406 10406 10406 10405 10405 10405 10403 10402 10400 10398 10396 10395 10396 10395 10394 10395 10396 10395 10393 10391 10389 10387 10385 10383 10381 10379 10376 10375 10373 10371 10370 10367 10364 10362 10359 10357 10354 10351 10348 10345 10342 10338 10335 10331 10328
10344 10348 10351 10352 10353 10355 10358 10362 10368 10372 10374 10378 10380 10383 10385 10387 10389 10390 10391 10391 10391 10392 10393 10393 10394 10396 10397 10398 10399 10398 10397 10397 10396 10395 10396 10396 10396 10395 10395 10394 10393 10393 10393 10392 10392 10392 10391 10390 10389 10387 10385 10382 10381 10380 10379 10377 10377 10378 10380 10380 10378 10375 10374 10371 10369 10367 10364 10361 10359 10357 10355 10353 10351 10347 10345 10342 10340 10337 10334 10331 10329 10325 10322 10317 10313 10310
10330 10333 10335 10337 10339 10342 10345 10350 10357 10361 10364 10367 10369 10369 10370 10371 10372 10374 10374 10374 10375 10376 10377 10379 10380 10381 10382 10383 10384 10384 10384 10382 10381 10380 10380 10380 10380 10381 10381 10380 10380 10380 10378 10378 10378 10377 10376 10376 10374 10373 10371 10369 10367 10365 10363 10361 10360 10359 10361 10363 10362 10360 10359 10356 10354 10352 10348 10345 10343 10340 10338 10336 10333 10330 10327 10324 10321 10319 10316 10313 10310 10308 10304 10299 10294 10291
10316 10317 10320 10324 10326 10329 10334 10341 10346 10349 10350 10352 10353 10354 10354 10355 10357 10358 10359 10360 10362 10363 10364 10365 10365 10366 10367 10367 10368 10369 10368 10366 10365 10365 10364 10364 10364 10364 10364 10365 10365 10365 10364 10363 10361 10360 10360 10359 10358 10358 10357 10355 10353 10351 10348 10345 10342 10341 10342 10344 10343 10342 10341 10339 10337 10335 10332 10329 10327 10325 10322 10319 10315 10312 10309 10306 10303 10300 10297 10294 10291 10288 10284 10280 10276 10273
10304 10305 10309 10312 10314 10320 10325 10328 10329 10331 10334 10336 10337 10339 10340 10342 10344 10346 10347 10347 10348 10348 10349 10350 10350 10350 10351 10352 10352 10352 10351 10350 10349 10349 10348 10349 10348 10347 10347 10347 10347 10347 10347 10346 10345 10344 10343 10341 10340 10340 10339 10337 10336 10335 10332 10329 10326 10324 10324 10324 10323 10323 10321 10320 10319 10318 10314 10310 10308 10306 10304 10301 10297 10293 10290 10286 10283 10280 10278 10275 10272 10268 10265 10260 10256 10253
10292 10293 10296 10298 10301 10306 10310 10311 10312 10316 10320 10322 10323 10324 10326 10327 10328 10330 10331 10333 10333 10333 10334 10335 10335 10335 10336 10336 10336 10335 10335 10334 10333 10333 10333 10333 10332 10331 10330 10329 10328 10328 10327 10327 10326 10326 10324 10323 10322 10322 10321 10320 10319 10316 10313 10311 10309 10307 10306 10304 10303 10303 10302 10300 10300 10299 10296 10292 10288 10285 10284 10281 10278 10274 10271 10267 10263 10259 10257 10255 10252 10249 10245 10241 10238 10234